COSMOS 1816

Satellite information

Favourite Embed

Satellite Type and Status

PAYLOADIN ORBIT

Key statistics

Satellite COSMOS 1816 at a glance.

Uptime

13977

Days in orbit

Revolutions

≈ 13.7

Per day

Orbit

LEO

Low Earth Orbit

Inclination

82.9

Latest

Satellite identification and parameters

Extended collection of information and parameters for COSMOS 1816.

Object identification

Identified? True

Debris? False

Object name: COSMOS 1816

International designator: 1987-009A

Object number (NORAD): 17359

Object ID (CCSDS): 17359

Country: COMMONWEALTH OF INDEPENDENT STATES (CIS)

Current information (Y/N): Y

RCS size: LARGE

Orbital parameters

Period: 104.755 minutes

Inclination: 82.9227 deg

SMA: 7361.123 km

Apoapsis: 1005.901 km

Periapsis: 960.076 km

RAAN: 326.8114 deg

Eccentricy: 0.0031126

Argument of periapsis: 264.3206 deg

Mean anomaly: 106.9179 deg

Mean motion: 13.74632515 rev/day

Mean motion (dot): 0.00000254 rev/day2

B* drag term: 0.00025143 1/REarth

Two-line elements (TLE)

Creation date: May 6, 2025, 3:54 a.m.

Reference frame: TEME

Reference center: EARTH

Epoch: May 5, 2025, 8:03 p.m. UTC

TLE line 0: 0 COSMOS 1816

TLE line 1: 1 17359U 87009A 25125.83587942 .00000254 00000-0 25143-3 0 9999

TLE line 2: 2 17359 82.9227 326.8114 0031126 264.3206 106.9179 13.74632515919197

Live tracking on map

Real-time ground track for satellite COSMOS 1816.

In-orbit conjunctions

A list of the most updated potential collisions computed for object COSMOS 1816.

Target Orbit TCA Probability of collision Miss distance Type
CZ-6A DEB SSO 2025-04-26 01:27:14 0.0001406051 886.0 (m) DEBRIS
FENGYUN 1C DEB SSO 2024-11-17 18:15:04 0.0003479315 209.0 (m) DEBRIS
COSMOS 1275 DEB LEO 2024-06-19 13:50:18 0.001753284 271.0 (m) DEBRIS

Associated space launch

Civilian navigation satellite equivalent to the purely military Parus

COSMOS 1816 was lifted into orbit during the mission ‘Kosmos-3M | Tsikada 15’, on board a Kosmos-3M space rocket.

The launch took place on Jan. 29, 1987, 6:14 a.m. from 132/2.

For more information about the launch, click the button.

Launch to space Kosmos-3M | Tsikada 15
Kosmos-3M | Tsikada 15

Agency: N/A

Status: Launch Successful

Launch date: Jan. 29, 1987, 6:14 a.m. UTC

Rocket: Kosmos-3M

Launch pad: 132/2

Location: Plesetsk Cosmodrome, Russian Federation

...

Latest news about this satellite

There are no fresh news available about this satellite. Check back as we update our databases every day.


Newsletter sign-up

Weekly statistics, charts and insights to help you stay on top of the space industry.